FW6744 Weather Reports


Display with metric or nautical units.
time (UTC)temp
F
wind
direction
speed
MPH
gust
MPH
rain 1hr
in
rain 24hr
in
rain mn
in
humidity
%
barometer
mb
20260901015214 81 31 0.0 0.0 0.00 0.00 0.00 80 1014.6
20260901014713 81 30 0.0 0.0 0.00 0.00 0.00 80 1014.5
20260901014435 81 30 0.0 0.0 0.00 0.00 0.00 80 1014.5
20260901013714 81 30 0.0 0.0 0.00 0.00 0.00 80 1014.5
20260901013208 81 30 0.0 0.0 0.00 0.00 0.00 80 1014.4
20260901012702 81 30 0.0 0.0 0.00 0.00 0.00 80 1014.5
20260901012156 81 31 0.0 0.0 0.00 0.00 0.00 80 1014.4
20260901011650 81 31 0.0 0.0 0.00 0.00 0.00 79 1014.3
20260901011144 81 30 0.0 0.0 0.00 0.00 0.00 79 1014.3
20260901010637 81 30 0.0 1.0 0.00 0.00 0.00 79 1014.3
20260901010132 81 30 0.0 1.0 0.00 0.00 0.00 78 1014.2
20260901005626 81 30 0.0 0.0 0.00 0.00 0.00 78 1014.2
20260901005119 81 30 0.0 0.0 0.00 0.00 0.00 78 1014.2
20260901004614 81 30 0.0 0.0 0.00 0.00 0.00 78 1014.2
20260901004107 81 30 0.0 0.0 0.00 0.00 0.00 78 1014.3
20260901003602 81 30 0.0 0.0 0.00 0.00 0.00 78 1014.3
20260901003056 81 30 0.0 0.0 0.00 0.00 0.00 78 1014.3
20260901002550 81 30 0.0 0.0 0.00 0.00 0.00 78 1014.2
20260901002044 81 30 0.0 0.0 0.00 0.00 0.00 77 1014.1
20260901001537 81 30 0.0 0.0 0.00 0.00 0.00 77 1014.1
20260901001251 82 30 0.0 0.0 0.00 0.00 0.00 77 1014.0
20260901000526 82 30 0.0 0.0 0.00 0.00 0.00 76 1013.9
20260901000020 82 30 0.0 0.0 0.00 0.00 0.00 76 1013.9
20260831235514 83 30 0.0 0.0 0.00 0.00 0.00 76 1013.8
20260831235008 83 30 0.0 0.0 0.00 0.00 0.00 75 1013.8
20260831234508 83 30 0.0 0.0 0.00 0.00 0.00 75 1013.9
20260831234005 83 30 0.0 0.0 0.00 0.00 0.00 74 1013.9
20260831233504 83 30 0.0 0.0 0.00 0.00 0.00 74 1013.9
20260831233006 84 30 0.0 0.0 0.00 0.00 0.00 73 1013.9
20260831232502 84 30 0.0 0.0 0.00 0.00 0.00 72 1013.9
20260831232004 84 30 0.0 0.0 0.00 0.00 0.00 72 1013.8
20260831231502 85 30 0.0 0.0 0.00 0.00 0.00 72 1013.8
20260831231000 85 30 0.0 0.0 0.00 0.00 0.00 71 1013.8
20260831230504 85 30 0.0 0.0 0.00 0.00 0.00 71 1013.7
20260831230232 86 30 0.0 0.0 0.00 0.00 0.00 70 1013.7
20260831225725 86 30 0.0 0.0 0.00 0.00 0.00 69 1013.7
20260831225222 87 30 0.0 0.0 0.00 0.00 0.00 67 1013.6
20260831224723 87 30 0.0 0.0 0.00 0.00 0.00 67 1013.7
20260831223959 87 30 0.0 0.0 0.00 0.00 0.00 67 1013.6
20260831223501 87 30 0.0 2.0 0.00 0.00 0.00 67 1013.7
20260831222957 88 30 0.0 2.0 0.00 0.00 0.00 66 1013.7
20260831222458 88 33 0.0 0.0 0.00 0.00 0.00 66 1013.8
20260831221956 88 32 0.0 0.0 0.00 0.00 0.00 66 1013.8
20260831221457 88 33 0.0 0.0 0.00 0.00 0.00 65 1013.8
20260831220958 89 33 0.0 0.0 0.00 0.00 0.00 64 1013.8
20260831220457 89 32 0.0 1.0 0.00 0.00 0.00 63 1013.8
20260831220434 89 33 0.0 1.0 0.00 0.00 0.00 61 1013.7
20260831215458 90 32 0.0 1.0 0.00 0.00 0.00 59 1013.7
20260831214956 90 32 0.0 1.0 0.00 0.00 0.00 59 1013.7
20260831214721 91 32 0.0 1.0 0.00 0.00 0.00 57 1013.7
20260831213957 92 33 0.0 1.0 0.00 0.00 0.00 58 1013.6
20260831213716 92 32 0.0 1.0 0.00 0.00 0.00 57 1013.6
20260831212956 92 33 0.0 1.0 0.00 0.00 0.00 55 1013.7
20260831212456 93 32 0.0 2.0 0.00 0.00 0.00 54 1013.6
20260831211957 93 33 0.0 2.0 0.00 0.00 0.00 56 1013.7
20260831211451 93 41 0.0 1.0 0.00 0.00 0.00 55 1013.6
20260831211205 93 44 1.0 2.0 0.00 0.00 0.00 56 1013.6
20260831210439 93 31 1.0 2.0 0.00 0.00 0.00 56 1013.6
20260831205933 93 31 1.0 3.0 0.00 0.00 0.00 56 1013.6
20260831205427 94 32 0.0 3.0 0.00 0.00 0.00 56 1013.6
20260831204921 94 238 0.0 1.0 0.00 0.00 0.00 55 1013.6
20260831204636 94 236 0.0 1.0 0.00 0.00 0.00 53 1013.6
20260831203909 94 264 0.0 1.0 0.00 0.00 0.00 51 1013.7
20260831203637 94 184 1.0 3.0 0.00 0.00 0.00 50 1013.7
20260831202857 95 165 1.0 3.0 0.00 0.00 0.00 51 1013.7
20260831202619 96 35 0.0 3.0 0.00 0.00 0.00 52 1013.6
20260831202100 95 25 1.0 3.0 0.00 0.00 0.00 50 1013.6
20260831201339 96 40 0.0 2.0 0.00 0.00 0.00 50 1013.7
20260831200833 96 27 0.0 2.0 0.00 0.00 0.00 52 1013.7
20260831200326 96 217 0.0 2.0 0.00 0.00 0.00 51 1013.7
20260831195821 95 32 1.0 4.0 0.00 0.00 0.00 51 1013.8
20260831195315 96 32 1.0 4.0 0.00 0.00 0.00 50 1013.8
20260831195027 96 204 1.0 5.0 0.00 0.00 0.00 49 1013.8
20260831194303 96 32 1.0 5.0 0.00 0.00 0.00 51 1013.8
20260831193756 96 189 1.0 4.0 0.00 0.00 0.00 49 1013.8
20260831193512 95 153 1.0 4.0 0.00 0.00 0.00 51 1013.9
20260831192745 94 34 1.0 5.0 0.00 0.00 0.00 56 1013.9
20260831192239 94 23 1.0 5.0 0.00 0.00 0.00 53 1013.9
20260831191954 95 269 1.0 3.0 0.00 0.00 0.00 53 1014.0
20260831191227 95 30 0.0 3.0 0.00 0.00 0.00 53 1014.0
20260831190721 94 36 1.0 3.0 0.00 0.00 0.00 54 1014.1
20260831190215 94 24 1.0 3.0 0.00 0.00 0.00 53 1014.2
20260831185937 94 35 1.0 3.0 0.00 0.00 0.00 51 1014.2
20260831185203 95 27 1.0 3.0 0.00 0.00 0.00 51 1014.3
20260831184657 95 38 0.0 3.0 0.00 0.00 0.00 53 1014.3
20260831184151 94 29 0.0 3.0 0.00 0.00 0.00 54 1014.3
20260831183645 94 28 1.0 4.0 0.00 0.00 0.00 54 1014.3
20260831183139 94 41 1.0 4.0 0.00 0.00 0.00 54 1014.4
20260831182850 94 222 0.0 4.0 0.00 0.00 0.00 53 1014.4
20260831182127 94 39 1.0 3.0 0.00 0.00 0.00 55 1014.4
20260831182104 94 34 1.0 3.0 0.00 0.00 0.00 54 1014.5
20260831181115 94 51 1.0 3.0 0.00 0.00 0.00 54 1014.6
20260831180609 94 174 1.0 3.0 0.00 0.00 0.00 54 1014.6
20260831175558 94 101 1.0 2.0 0.00 0.00 0.00 55 1014.6
20260831175058 94 205 0.0 2.0 0.00 0.00 0.00 56 1014.6
20260831174557 93 40 0.0 3.0 0.00 0.00 0.00 57 1014.7
20260831174054 93 218 0.0 3.0 0.00 0.00 0.00 56 1014.7
20260831173554 93 61 0.0 1.0 0.00 0.00 0.00 57 1014.8
20260831173055 93 50 1.0 4.0 0.00 0.00 0.00 58 1014.8
20260831172552 92 63 1.0 4.0 0.00 0.00 0.00 58 1014.9
20260831172052 93 46 0.0 4.0 0.00 0.00 0.00 59 1014.9
20260831171814 92 305 0.0 2.0 0.00 0.00 0.00 60 1014.9
20260831171050 92 48 0.0 2.0 0.00 0.00 0.00 61 1014.9
20260831170550 92 54 0.0 2.0 0.00 0.00 0.00 61 1014.9
20260831170305 92 188 0.0 3.0 0.00 0.00 0.00 63 1014.9
20260831165547 91 191 0.0 3.0 0.00 0.00 0.00 63 1014.8
20260831165047 91 70 0.0 2.0 0.00 0.00 0.00 65 1014.9
20260831164546 90 240 0.0 3.0 0.00 0.00 0.00 63 1015.1
20260831164046 90 101 1.0 3.0 0.00 0.00 0.00 65 1015.1
20260831163545 89 51 1.0 3.0 0.00 0.00 0.00 66 1015.1
20260831163041 89 323 0.0 3.0 0.00 0.00 0.00 66 1015.2
20260831162542 89 101 1.0 2.0 0.00 0.00 0.00 65 1015.2
20260831162039 88 213 1.0 2.0 0.00 0.00 0.00 67 1015.2
20260831161533 87 155 1.0 2.0 0.00 0.00 0.00 67 1015.4
20260831161027 87 37 0.0 2.0 0.00 0.00 0.00 69 1015.3
20260831160521 86 177 0.0 1.0 0.00 0.00 0.00 69 1015.3
20260831160503 86 34 1.0 2.0 0.00 0.00 0.00 71 1015.3
20260831155509 85 34 1.0 3.0 0.00 0.00 0.00 70 1015.4
20260831155003 85 34 0.0 3.0 0.00 0.00 0.00 74 1015.3
20260831154457 85 46 0.0 2.0 0.00 0.00 0.00 75 1015.4
20260831153951 84 29 0.0 2.0 0.00 0.00 0.00 76 1015.4
20260831153445 84 29 0.0 2.0 0.00 0.00 0.00 74 1015.3
20260831152939 83 287 0.0 1.0 0.00 0.00 0.00 76 1015.3
20260831152434 83 260 0.0 1.0 0.00 0.00 0.00 77 1015.4
20260831151928 83 259 0.0 1.0 0.00 0.00 0.00 77 1015.4
20260831151421 83 259 0.0 1.0 0.00 0.00 0.00 76 1015.3
20260831150915 83 37 0.0 2.0 0.00 0.00 0.00 78 1015.4
20260831150409 82 37 0.0 2.0 0.00 0.00 0.00 78 1015.3
20260831145903 82 30 0.0 2.0 0.00 0.00 0.00 79 1015.4
20260831145849 82 29 1.0 3.0 0.00 0.00 0.00 78 1015.4
20260831144854 81 233 1.0 3.0 0.00 0.00 0.00 79 1015.4
20260831144344 81 23 0.0 1.0 0.00 0.00 0.00 80 1015.4
20260831143839 81 334 0.0 1.0 0.00 0.00 0.00 80 1015.4
20260831143333 81 60 0.0 3.0 0.00 0.00 0.00 80 1015.4
20260831142830 81 163 0.0 3.0 0.00 0.00 0.00 80 1015.5
20260831142329 81 25 0.0 2.0 0.00 0.00 0.00 82 1015.5
20260831141828 80 6 0.0 1.0 0.00 0.00 0.00 81 1015.5
20260831141325 80 237 0.0 1.0 0.00 0.00 0.00 81 1015.5
20260831140823 80 237 0.0 1.0 0.00 0.00 0.00 81 1015.5
20260831140322 80 236 0.0 1.0 0.00 0.00 0.00 82 1015.5
20260831135821 80 257 0.0 2.0 0.00 0.00 0.00 82 1015.5
20260831135539 80 202 0.0 2.0 0.00 0.00 0.00 82 1015.5
20260831134816 79 211 0.0 3.0 0.00 0.00 0.00 82 1015.5
20260831134316 79 211 0.0 3.0 0.00 0.00 0.00 82 1015.5
20260831133816 79 199 0.0 1.0 0.00 0.00 0.00 83 1015.5
20260831133540 79 213 0.0 2.0 0.00 0.00 0.00 84 1015.4
20260831132816 79 213 0.0 2.0 0.00 0.00 0.00 83 1015.5
20260831132315 79 150 0.0 2.0 0.00 0.00 0.00 83 1015.5
20260831131816 79 122 0.0 2.0 0.00 0.00 0.00 84 1015.5
20260831131545 78 167 0.0 1.0 0.00 0.00 0.00 84 1015.3
20260831130812 78 163 0.0 1.0 0.00 0.00 0.00 84 1015.3
20260831130311 78 174 0.0 5.0 0.00 0.00 0.00 85 1015.3
20260831130031 78 177 0.0 5.0 0.00 0.00 0.00 86 1015.4
20260831125312 77 118 0.0 0.0 0.00 0.00 0.00 87 1015.4
20260831124812 77 207 0.0 0.0 0.00 0.00 0.00 88 1015.4
20260831124311 76 147 0.0 0.0 0.00 0.00 0.00 88 1015.4
20260831123813 76 147 0.0 0.0 0.00 0.00 0.00 88 1015.5
20260831123537 76 148 0.0 0.0 0.00 0.00 0.00 88 1015.6
20260831122813 76 148 0.0 0.0 0.00 0.00 0.00 89 1015.5
20260831122307 75 77 0.0 0.0 0.00 0.00 0.00 89 1015.4
20260831121808 75 30 0.0 0.0 0.00 0.00 0.00 90 1015.4
20260831121309 75 172 0.0 0.0 0.00 0.00 0.00 90 1015.3
20260831120807 74 209 0.0 0.0 0.00 0.00 0.00 91 1015.1
20260831120309 74 191 0.0 0.0 0.00 0.00 0.00 91 1015.1
20260831115808 74 193 0.0 0.0 0.00 0.00 0.00 92 1015.2
20260831115307 74 193 0.0 0.0 0.00 0.00 0.00 92 1015.2
20260831115030 73 210 0.0 0.0 0.00 0.00 0.00 92 1015.1
20260831114309 73 210 0.0 0.0 0.00 0.00 0.00 92 1015.1
20260831113805 73 210 0.0 0.0 0.00 0.00 0.00 92 1015.1
20260831113304 73 210 0.0 0.0 0.00 0.00 0.00 92 1015.0
20260831112804 73 210 0.0 0.0 0.00 0.00 0.00 92 1015.0
20260831112307 73 210 0.0 0.0 0.00 0.00 0.00 91 1014.8
20260831111804 73 210 0.0 0.0 0.00 0.00 0.00 91 1014.8
20260831111743 73 210 0.0 0.0 0.00 0.00 0.00 91 1014.8
20260831111024 73 210 0.0 0.0 0.00 0.00 0.00 91 1014.8
20260831110255 73 210 0.0 0.0 0.00 0.00 0.00 91 1014.7
20260831110022 73 210 0.0 0.0 0.00 0.00 0.00 90 1014.7
20260831105257 73 210 0.0 0.0 0.00 0.00 0.00 90 1014.7
20260831104753 73 210 0.0 0.0 0.00 0.00 0.00 90 1014.7
20260831104251 73 210 0.0 0.0 0.00 0.00 0.00 90 1014.7
20260831103751 73 210 0.0 0.0 0.00 0.00 0.00 90 1014.7
20260831103248 74 210 0.0 0.0 0.00 0.00 0.00 90 1014.7
20260831102747 74 210 0.0 0.0 0.00 0.00 0.00 90 1014.7
20260831102247 74 210 0.0 0.0 0.00 0.00 0.00 89 1014.7
20260831101746 74 210 0.0 0.0 0.00 0.00 0.00 89 1014.6
20260831101512 74 210 0.0 0.0 0.00 0.00 0.00 89 1014.5
20260831100743 74 210 0.0 0.0 0.00 0.00 0.00 89 1014.4
20260831100458 74 210 0.0 0.0 0.00 0.00 0.00 89 1014.3
20260831095731 74 210 0.0 0.0 0.00 0.00 0.00 89 1014.4
20260831095452 74 210 0.0 0.0 0.00 0.00 0.00 88 1014.4
20260831094718 74 210 0.0 0.0 0.00 0.00 0.00 88 1014.4
20260831094434 75 210 0.0 0.0 0.00 0.00 0.00 88 1014.4
20260831093707 75 210 0.0 0.0 0.00 0.00 0.00 88 1014.4
20260831093201 75 210 0.0 0.0 0.00 0.00 0.00 87 1014.4
20260831092655 75 210 0.0 2.0 0.00 0.00 0.00 87 1014.4
20260831092148 75 210 0.0 2.0 0.00 0.00 0.00 88 1014.4
20260831091643 75 198 0.0 0.0 0.00 0.00 0.00 88 1014.4
20260831091137 75 198 0.0 0.0 0.00 0.00 0.00 88 1014.4
20260831090630 75 198 0.0 0.0 0.00 0.00 0.00 88 1014.5
20260831090125 75 198 0.0 0.0 0.00 0.00 0.00 88 1014.4
20260831085619 75 198 0.0 0.0 0.00 0.00 0.00 87 1014.4
20260831085113 75 198 0.0 0.0 0.00 0.00 0.00 87 1014.4
20260831084928 75 198 0.0 0.0 0.00 0.00 0.00 87 1014.4
20260831084836 76 198 0.0 0.0 0.00 0.00 0.00 87 1014.4
20260831083555 76 198 0.0 0.0 0.00 0.00 0.00 87 1014.4
20260831083049 76 198 0.0 0.0 0.00 0.00 0.00 86 1014.4
20260831082543 76 198 0.0 0.0 0.00 0.00 0.00 86 1014.4
20260831082037 76 198 0.0 0.0 0.00 0.00 0.00 86 1014.4
20260831081531 76 198 0.0 0.0 0.00 0.00 0.00 86 1014.4
20260831081025 76 198 0.0 0.0 0.00 0.00 0.00 85 1014.4
20260831080519 76 198 0.0 0.0 0.00 0.00 0.00 85 1014.4
20260831080241 76 198 0.0 0.0 0.00 0.00 0.00 85 1014.3
20260831075507 76 198 0.0 0.0 0.00 0.00 0.00 84 1014.3
20260831075000 76 198 0.0 0.0 0.00 0.00 0.00 84 1014.3
20260831074454 76 198 0.0 0.0 0.00 0.00 0.00 84 1014.3
20260831073949 76 198 0.0 0.0 0.00 0.00 0.00 84 1014.3
20260831073708 77 198 0.0 0.0 0.00 0.00 0.00 84 1014.3
20260831072937 77 198 0.0 1.0 0.00 0.00 0.00 83 1014.4
20260831072431 77 198 0.0 1.0 0.00 0.00 0.00 83 1014.4
20260831071924 77 146 0.0 1.0 0.00 0.00 0.00 83 1014.3
20260831071418 77 146 0.0 1.0 0.00 0.00 0.00 83 1014.4
20260831070913 77 203 0.0 1.0 0.00 0.00 0.00 82 1014.5
20260831070407 77 202 0.0 3.0 0.00 0.00 0.00 82 1014.6
20260831065900 77 322 0.0 3.0 0.00 0.00 0.00 82 1014.6
20260831065354 77 191 0.0 4.0 0.00 0.00 0.00 82 1014.5
20260831064852 77 205 0.0 4.0 0.00 0.00 0.00 83 1014.5
20260831064342 77 217 0.0 1.0 0.00 0.00 0.00 83 1014.5
20260831063837 77 199 0.0 2.0 0.00 0.00 0.00 84 1014.5
20260831063331 76 169 0.0 2.0 0.00 0.00 0.00 84 1014.5
20260831063050 76 149 0.0 3.0 0.00 0.00 0.00 85 1014.6
20260831062539 76 247 0.0 3.0 0.00 0.00 0.00 85 1014.6
20260831061812 76 208 0.0 1.0 0.00 0.00 0.00 86 1014.6
20260831061530 76 208 0.0 1.0 0.00 0.00 0.00 86 1014.5
20260831061041 76 208 0.0 1.0 0.00 0.00 0.00 87 1014.7
20260831060310 75 13 0.0 1.0 0.00 0.00 0.00 87 1014.8
20260831055808 76 13 0.0 0.0 0.00 0.00 0.00 87 1014.8
20260831055307 76 13 0.0 0.0 0.00 0.00 0.00 87 1014.8
20260831054807 76 13 0.0 0.0 0.00 0.00 0.00 86 1014.8
20260831054308 76 13 0.0 0.0 0.00 0.00 0.00 86 1014.9
20260831053806 76 13 0.0 0.0 0.00 0.00 0.00 86 1014.9
20260831053307 76 13 0.0 0.0 0.00 0.00 0.00 85 1014.9
20260831052802 77 13 0.0 0.0 0.00 0.00 0.00 85 1015.1
20260831052306 77 13 0.0 0.0 0.00 0.00 0.00 85 1015.0
20260831051257 77 13 0.0 0.0 0.00 0.00 0.00 84 1015.2
20260831051016 77 13 0.0 0.0 0.00 0.00 0.00 84 1015.2
20260831050254 78 13 0.0 0.0 0.00 0.00 0.00 83 1015.2
20260831045752 78 13 0.0 0.0 0.00 0.00 0.00 83 1015.2
20260831045250 78 13 0.0 0.0 0.00 0.00 0.00 83 1015.2
20260831044749 78 13 0.0 0.0 0.00 0.00 0.00 83 1015.2
20260831044246 78 13 0.0 0.0 0.00 0.00 0.00 83 1015.2
20260831044226 78 13 0.0 0.0 0.00 0.00 0.00 83 1015.2
20260831043511 78 13 0.0 0.0 0.00 0.00 0.00 83 1015.2
20260831042738 78 13 0.0 0.0 0.00 0.00 0.00 83 1015.3
20260831042232 78 13 0.0 0.0 0.00 0.00 0.00 83 1015.3
20260831041726 78 13 0.0 0.0 0.00 0.00 0.00 83 1015.3
20260831041220 78 351 0.0 0.0 0.00 0.00 0.00 83 1015.3
20260831040713 78 275 0.0 0.0 0.00 0.00 0.00 83 1015.3
20260831040208 78 275 0.0 0.0 0.00 0.00 0.00 84 1015.3
20260831035924 78 274 0.0 0.0 0.00 0.00 0.00 84 1015.3
20260831035156 78 275 0.0 0.0 0.00 0.00 0.00 84 1015.3
20260831034650 78 274 0.0 0.0 0.00 0.00 0.00 84 1015.3
20260831034144 78 274 0.0 0.0 0.00 0.00 0.00 84 1015.4
20260831033638 78 274 0.0 0.0 0.00 0.00 0.00 84 1015.4
20260831033132 78 275 0.0 0.0 0.00 0.00 0.00 84 1015.5
20260831032626 77 275 0.0 0.0 0.00 0.00 0.00 84 1015.4
20260831032347 77 274 0.0 0.0 0.00 0.00 0.00 85 1015.5
20260831032106 77 275 0.0 0.0 0.00 0.00 0.00 86 1015.5
20260831031109 77 274 0.0 0.0 0.00 0.00 0.00 86 1015.5
20260831030602 77 274 0.0 0.0 0.00 0.00 0.00 86 1015.5
20260831030056 77 274 0.0 0.0 0.00 0.00 0.00 86 1015.5
20260831025550 77 274 0.0 1.0 0.00 0.00 0.00 86 1015.6
20260831025045 77 274 0.0 1.0 0.00 0.00 0.00 86 1015.5
20260831024538 77 289 0.0 0.0 0.00 0.00 0.00 86 1015.6
20260831024032 77 290 0.0 0.0 0.00 0.00 0.00 86 1015.5
20260831023527 77 290 0.0 0.0 0.00 0.00 0.00 86 1015.5
20260831023245 77 290 0.0 0.0 0.00 0.00 0.00 86 1015.5
20260831022515 77 290 0.0 0.0 0.00 0.00 0.00 85 1015.6
20260831022008 77 290 0.0 0.0 0.00 0.00 0.00 85 1015.6
20260831021502 77 290 0.0 0.0 0.00 0.00 0.00 85 1015.5
20260831020956 77 290 0.0 0.0 0.00 0.00 0.00 84 1015.6
20260831020451 77 290 0.0 0.0 0.00 0.00 0.00 84 1015.5
20260831015944 77 289 0.0 0.0 0.00 0.00 0.00 84 1015.6